Regional Weather Roundup
Issued by NWS

Home | Current Version | Previous Version | Graphics & Text | Print | Product List | Glossary On
Versions: 1 2 3 4 5 6 7 8 9 10 11 12 13 14 15 16 17 18 19 20 21 22 23 24 25 26 27 28 29 30 31 32 33 34 35 36 37 38 39 40 41 42 43 44 45 46 47 48 49 50
434
ASUS45 KBOI 232210
RWRID

IDAHO REGIONAL WEATHER ROUNDUP
NATIONAL WEATHER SERVICE BOISE ID
300 PM MST THU NOV 23 2017

NOTE: "FAIR" INDICATES FEW OR NO CLOUDS BELOW 12000 FEET
WITH NO SIGNIFICANT WEATHER AND/OR OBSTRUCTIONS TO VISIBILITY

IDZ012-014-232300-
SOUTHWEST IDAHO


CITY           SKY/WX    TMP DP  RH WIND       PRES   REMARKS
BOISE          PTSUNNY   64  46  52 SE10      29.97F
CALDWELL       PTSUNNY   63  55  75 E5        29.95F HAZE
MOUNTAIN HOME  CLOUDY    62  51  66 E9        29.98F
$$

IDZ016-017-232300-
SOUTHCENTRAL IDAHO


CITY           SKY/WX    TMP DP  RH WIND       PRES   REMARKS
BURLEY         PTSUNNY   65  40  39 SW20G26   30.04F
JEROME         PTSUNNY   62  46  55 S6        30.05F
TWIN FALLS     CLOUDY    61  44  53 S15G21    30.05F
$$

IDZ019>023-232300-
SOUTHEAST IDAHO


CITY           SKY/WX    TMP DP  RH WIND       PRES   REMARKS
IDAHO FALLS    CLOUDY    58  44  60 SW21G28   30.04F
POCATELLO      PTSUNNY   63  40  42 S21G26    30.07F
REXBURG        CLOUDY    59  40  49 SW22G33   30.01F
$$

IDZ006-010-011-018-031-032-232300-
CENTRAL IDAHO MOUNTAINS


CITY           SKY/WX    TMP DP  RH WIND       PRES   REMARKS
MCCALL         CLOUDY    56  39  53 S15G22    29.96F
HAILEY         MOSUNNY   57  39  51 S7        30.07F
STANLEY          N/A     51  32  48 S12G18    30.06F
SALMON         MOSUNNY   43  41  93 CALM      29.89F
CHALLIS        SUNNY     63  32  31 SW16G29   29.95F
$$

IDZ002-004-006-007-026-232300-
NORTHERN IDAHO


CITY           SKY/WX    TMP DP  RH WIND       PRES   REMARKS
LEWISTON       MOSUNNY   58  54  86 N7        29.75F
LOWELL           N/A     50  48  93 CALM      29.82F
COEUR D`ALENE  CLOUDY    58  48  69 SW22G28   29.67F
MULLAN PASS    RAIN      41  39  93 W14G30    29.73F FOG
$$




USA.gov is the U.S. government's official web portal to all federal, state and local government web resources and services.